Wind_Speed
12 10 9 8 2 7 13 8 5 6 7 7 2 2 2 3 5 4 5 12 15 18 19 18 16 14 12 11 9 11 9 9 8 8 9 8 9 8 9 9 10 10 9 8 8 7 5 3 3
14 13 11 10 5 14 8 3 9 11 12 9 3 1 5 1 3 4 4 11 15 17 17 17 15 16 15 11 5 9 8 7 7 7 7 6 7 10 10 10 10 9 8 8 6 6 4 4 3
13 10 10 5 7 11 10 8 8 7 4 0 3 4 4 2 2 1 3 8 17 18 19 17 15 14 12 11 10 9 10 10 8 6 4 4 5 7 11 12 11 8 8 8 7 5 5 4 3
10 13 10 9 7 6 8 7 9 9 7 5 3 9 8 5 4 1 3 6 15 17 18 17 13 11 9 9 9 8 9 9 9 8 4 7 6 6 7 10 10 9 9 8 8 7 5 3 3
12 11 13 10 5 2 7 10 7 6 6 5 6 11 8 5 4 3 6 10 14 16 19 17 13 12 9 10 8 4 8 9 7 6 6 8 6 3 10 11 9 10 9 9 8 6 5 2 1
12 11 12 10 8 7 14 14 9 8 5 2 5 9 13 12 6 6 8 13 13 18 19 18 15 12 11 12 10 5 4 6 7 7 7 8 2 5 9 12 10 11 10 9 8 6 3 1 0
11 9 10 9 5 5 5 4 5 5 4 4 5 10 15 9 4 5 9 14 14 17 18 18 16 14 14 14 14 16 11 9 9 8 7 5 3 8 8 11 11 12 12 11 8 5 3 3 6
11 9 9 6 7 4 4 2 6 4 5 6 8 10 14 8 7 4 6 10 15 15 16 16 16 14 10 8 8 10 12 11 12 10 6 5 6 6 11 13 12 14 12 9 6 5 2 5 9
7 12 10 9 10 9 6 8 8 6 8 8 9 13 15 14 7 6 8 10 14 14 13 12 15 13 11 8 9 8 11 10 12 12 9 8 7 9 12 15 14 15 12 9 6 0 5 10 15
7 9 11 13 15 15 5 3 11 7 9 12 13 15 16 17 9 6 8 6 8 12 12 8 13 13 10 7 9 12 12 12 13 12 11 11 14 14 14 14 14 15 11 8 4 3 9 11 10
12 10 13 15 17 20 6 9 11 12 14 13 16 12 12 14 6 3 8 8 7 10 10 10 10 10 11 10 11 13 15 17 17 14 10 14 19 15 16 16 14 12 10 7 2 5 9 16 7
13 13 14 18 19 18 10 8 10 13 10 10 12 6 8 10 4 3 4 5 6 7 11 8 9 11 12 9 9 13 14 17 19 19 14 15 21 17 16 16 14 11 9 4 1 5 7 7 11
15 13 17 19 21 16 16 10 6 9 9 7 10 4 5 6 5 2 8 7 7 7 6 7 9 11 13 9 7 6 5 17 20 17 18 25 23 21 18 16 15 11 6 4 2 6 7 5 7
8 12 15 19 20 16 12 3 6 9 10 8 8 3 4 5 6 5 6 4 3 2 6 8 12 15 13 12 7 4 7 12 18 18 20 25 23 20 19 18 16 12 8 5 7 6 7 4 6
12 15 15 16 18 14 9 7 7 13 12 13 8 4 2 3 3 1 7 7 5 6 7 6 8 14 15 14 10 6 7 13 18 17 28 23 22 21 19 17 15 13 10 6 5 5 11 2 6
16 11 13 14 18 15 13 11 7 11 15 19 13 14 5 3 3 1 4 7 8 10 12 10 8 11 16 14 12 8 8 15 18 23 25 23 17 21 18 15 16 13 12 7 4 3 6 5 5
10 16 21 17 15 13 17 14 11 12 16 20 21 17 10 1 4 4 4 6 9 12 12 12 8 13 17 15 13 12 13 15 19 24 22 21 16 20 17 16 16 13 9 4 2 2 4 7 5
17 21 26 28 20 19 21 15 13 17 20 17 20 20 17 7 2 4 6 8 10 11 11 9 6 12 16 15 14 15 18 18 19 23 23 19 16 20 18 18 13 9 7 4 4 2 3 1 4
18 23 28 20 19 16 14 17 14 16 7 9 18 23 17 12 9 8 8 8 7 7 8 5 5 11 13 13 14 17 20 20 18 19 24 20 21 20 18 15 10 10 8 6 3 2 2 3 2
20 26 20 22 16 11 14 21 20 15 5 6 7 12 16 15 11 10 5 5 4 6 7 3 7 11 12 12 15 18 17 20 23 21 19 20 20 19 17 12 12 9 7 5 5 3 4 4 1
22 23 18 22 11 11 16 25 22 14 9 11 13 11 16 11 13 15 11 4 6 3 2 2 5 11 14 16 19 21 24 22 23 22 18 18 19 19 16 14 12 11 11 8 6 6 6 4 2
26 12 14 9 9 11 16 13 25 16 8 9 14 15 11 13 14 18 13 11 3 3 2 4 5 10 14 17 16 17 17 15 20 18 17 19 20 19 16 15 12 11 11 8 10 7 6 8 5
15 16 16 10 14 20 15 8 16 20 11 9 7 14 14 8 11 11 8 9 7 6 2 4 4 8 12 13 14 16 18 23 18 21 22 18 18 17 17 15 12 11 12 8 9 6 6 7 7
19 18 12 12 12 4 7 8 14 11 16 14 7 11 16 14 9 14 12 11 11 12 5 5 5 5 9 12 15 19 20 22 23 19 14 17 17 17 16 16 14 15 14 12 12 11 10 8 6
17 16 4 5 4 6 12 7 15 19 18 12 11 7 8 11 13 16 18 16 14 13 8 8 7 9 10 11 14 20 25 20 19 17 15 17 17 16 15 16 15 16 14 13 13 14 11 8 8
2 9 5 4 3 7 13 6 9 16 11 5 6 7 8 9 11 10 13 18 16 15 14 9 8 9 11 11 11 17 24 24 20 19 13 16 16 16 16 16 13 15 14 13 13 13 10 10 10
7 13 10 14 13 4 3 8 19 7 7 5 5 5 7 8 7 2 5 10 12 11 12 11 7 7 10 12 13 12 23 23 15 18 13 13 18 21 18 15 15 13 13 12 12 12 10 10 11
13 12 3 4 1 4 5 7 16 15 5 0 7 10 6 8 6 6 2 7 7 8 12 15 8 5 7 11 13 11 15 22 22 20 12 14 16 21 15 15 16 17 16 15 13 11 11 12 12
5 15 18 10 7 6 2 9 11 17 11 4 2 8 7 12 9 6 3 2 8 12 12 15 10 7 7 10 14 15 14 20 23 23 19 18 16 18 17 16 19 18 18 17 14 14 13 12 12
8 7 6 3 2 5 4 9 15 14 11 6 2 4 10 11 12 8 4 5 7 10 14 15 13 9 8 8 11 14 16 18 21 21 20 20 18 19 18 17 20 21 21 18 16 15 14 14 15
Wind_Direction
63 66 57 41 81 91 126 71 126 125 111 61 73 112 295 302 191 273 262 194 191 176 174 170 162 173 171 154 144 148 152 154 147 139 135 140 126 118 129 129 139 140 152 152 166 187 184 197 175
50 72 83 87 81 140 130 64 97 104 118 99 342 319 345 46 237 244 252 220 195 185 184 181 173 171 174 171 205 172 157 149 154 151 148 163 159 162 155 141 146 148 162 150 177 189 164 197 150
38 65 60 28 41 140 141 128 86 104 138 229 280 332 290 316 309 99 238 221 206 186 190 188 179 178 193 216 236 183 171 164 164 155 173 186 184 185 175 150 143 157 167 161 175 177 177 185 149
49 52 59 45 65 145 155 118 110 121 147 193 244 305 306 295 320 314 191 211 210 192 194 196 197 202 196 219 245 158 156 160 169 173 173 201 207 186 168 154 156 168 163 166 171 177 190 160 188
57 52 40 40 51 85 175 156 160 181 199 212 275 298 305 301 305 298 186 189 210 208 199 205 210 211 227 226 220 223 153 156 186 187 190 205 229 165 168 155 164 166 159 160 165 173 187 175 159
50 50 36 58 47 97 144 182 189 215 230 312 290 301 312 311 307 302 201 188 192 202 208 212 214 215 220 213 213 213 235 213 218 205 208 244 274 172 199 159 163 156 160 158 161 172 202 285 338
44 27 24 27 32 94 125 153 158 160 189 225 271 306 327 328 306 275 189 190 191 194 204 212 224 232 230 238 253 253 246 228 229 224 215 259 208 206 196 161 166 158 163 161 154 189 225 319 310
30 11 9 26 1 331 241 255 220 201 245 242 277 320 351 321 298 239 214 195 187 187 202 215 221 224 212 256 252 222 212 231 241 235 236 256 191 185 169 175 168 163 164 160 168 198 276 321 318
21 14 20 7 344 342 282 249 214 204 241 259 273 310 323 344 328 273 227 192 191 203 199 209 208 205 225 241 226 225 230 238 242 235 234 211 191 155 174 161 178 162 165 167 182 110 328 323 326
23 353 5 2 355 359 291 238 254 207 239 267 275 299 310 308 329 289 222 206 199 209 192 194 207 221 234 238 220 217 237 246 241 226 223 197 175 152 152 168 178 168 169 185 156 71 3 11 63
356 355 351 349 351 344 281 247 268 249 269 274 285 299 307 327 327 305 179 160 189 182 185 189 202 216 225 230 235 245 265 258 228 209 183 182 172 163 166 170 179 170 179 168 128 32 47 82 51
336 335 331 344 341 341 319 242 247 268 274 284 277 287 302 333 18 60 167 203 182 207 189 203 223 231 225 230 247 258 261 224 202 197 191 185 173 175 171 168 178 175 192 147 252 72 32 62 37
330 333 318 323 328 326 333 262 298 250 284 276 298 280 324 34 30 132 160 180 207 224 220 202 217 234 229 233 222 213 204 186 189 179 171 166 168 173 173 170 181 182 168 91 172 71 17 56 66
321 311 300 298 309 322 327 271 273 273 263 264 265 316 358 23 21 108 91 31 209 268 272 273 254 235 225 221 202 225 182 200 191 175 170 167 172 175 171 178 182 168 154 152 87 38 335 46 94
290 306 293 292 302 300 291 283 258 259 254 262 225 236 308 336 15 258 358 32 27 14 338 278 268 223 213 207 203 203 202 170 173 171 168 172 177 179 177 182 186 174 158 152 75 9 11 77 90
294 312 320 331 318 285 269 296 249 279 266 271 240 228 232 323 340 300 352 321 5 359 343 319 270 219 205 201 207 209 197 177 182 170 171 173 183 192 178 177 181 173 171 152 109 8 331 17 60
300 326 333 343 344 292 258 305 281 292 309 248 256 231 209 269 274 14 12 352 358 347 338 323 262 216 206 195 200 198 183 170 167 172 174 174 184 194 198 190 184 177 174 171 163 138 54 26 360
323 324 321 324 320 305 264 295 294 290 295 256 232 223 225 243 283 328 322 322 336 334 329 324 234 197 191 191 195 192 181 166 155 174 172 177 189 183 192 195 183 171 175 169 141 5 346 358 19
303 310 308 335 316 286 277 292 301 289 289 254 218 241 229 234 239 263 303 332 324 318 334 316 208 196 193 185 184 186 178 182 170 170 175 184 183 188 193 198 177 188 178 173 182 220 271 256 262
308 309 314 317 298 268 281 299 293 292 272 218 206 234 230 232 239 242 292 8 293 293 352 313 208 198 188 179 175 172 181 181 181 173 183 182 186 190 189 187 190 182 192 194 183 242 231 241 204
313 306 309 308 294 294 292 308 321 301 281 220 226 208 220 233 237 242 247 300 339 280 343 311 215 192 192 190 185 181 177 184 187 187 180 186 191 195 188 195 181 185 200 207 206 200 196 226 217
310 333 317 278 300 296 317 308 331 337 299 249 229 229 237 228 230 241 249 258 306 323 282 308 233 208 200 200 196 193 186 190 182 187 186 189 195 196 187 195 192 196 211 212 234 215 197 223 220
298 318 318 298 315 322 318 307 320 325 327 334 256 235 229 258 221 189 216 245 246 296 292 274 287 211 212 211 207 196 184 173 178 187 186 192 199 198 195 197 198 203 218 220 226 231 221 226 212
287 302 315 308 304 325 340 337 328 338 330 324 278 234 233 245 238 220 237 242 255 254 276 283 252 219 213 216 217 197 192 202 195 196 185 199 204 205 202 205 203 207 227 224 237 227 232 222 222
262 278 312 325 333 226 315 308 287 331 323 326 315 284 256 243 262 244 232 234 240 242 251 275 284 239 219 206 214 206 198 198 196 200 204 206 208 209 210 209 216 225 223 215 227 223 227 237 240
267 244 212 227 226 280 307 259 307 333 316 292 327 265 253 267 265 280 254 236 254 279 268 267 292 238 236 233 223 217 208 207 206 202 195 210 215 212 211 209 215 222 220 232 227 226 228 236 241
259 249 263 248 277 306 270 269 317 317 320 285 325 313 270 280 308 6 171 229 241 245 263 256 267 275 244 235 233 236 212 204 197 186 197 213 222 221 212 215 216 221 229 234 227 221 240 242 243
245 267 296 279 167 284 302 290 331 333 290 315 12 343 273 263 284 45 182 192 222 229 240 244 244 284 251 236 232 229 215 202 205 211 210 217 234 222 223 223 222 224 229 234 232 227 228 239 236
266 258 264 282 260 186 250 289 304 341 312 220 9 308 262 250 267 302 65 191 237 249 213 228 240 254 268 243 227 221 207 208 213 218 222 217 223 232 237 237 230 221 223 222 224 231 227 225 239
181 150 40 50 318 277 249 285 321 330 308 223 271 234 275 249 249 257 289 219 196 218 207 214 241 256 253 246 239 227 220 212 217 222 225 223 232 241 243 239 229 230 228 231 221 233 238 236 236
Height
3166 3165 3165 3166 3170 3168 3167 3171 3168 3168 3169 3169 3168 3169 3170 3168 3168 3171 3167 3168 3171 3173 3175 3177 3179 3181 3182 3184 3184 3186 3187 3189 3190 3191 3191 3192 3194 3194 3195 3197 3197 3198 3198 3199 3200 3201 3203 3203 3203
3167 3166 3166 3166 3167 3166 3169 3170 3169 3168 3168 3169 3171 3169 3169 3169 3169 3168 3168 3169 3171 3173 3175 3177 3178 3180 3181 3182 3183 3185 3187 3189 3191 3191 3193 3193 3194 3195 3196 3197 3198 3199 3199 3200 3200 3201 3203 3203 3204
3168 3167 3167 3165 3165 3165 3167 3169 3169 3168 3170 3169 3170 3169 3170 3169 3168 3167 3168 3169 3171 3172 3175 3177 3179 3180 3181 3182 3180 3179 3184 3187 3190 3192 3192 3194 3194 3194 3195 3197 3198 3199 3200 3201 3200 3201 3202 3203 3204
3170 3170 3168 3167 3165 3164 3168 3168 3168 3168 3168 3168 3170 3170 3170 3169 3168 3167 3167 3169 3170 3172 3174 3178 3180 3181 3182 3181 3179 3178 3182 3188 3190 3191 3192 3194 3193 3194 3195 3197 3200 3199 3200 3200 3201 3201 3202 3203 3203
3171 3170 3168 3166 3166 3168 3168 3170 3168 3169 3167 3168 3169 3169 3168 3169 3168 3167 3167 3168 3170 3172 3174 3178 3180 3181 3181 3181 3180 3181 3181 3185 3189 3191 3192 3193 3192 3192 3197 3199 3200 3200 3201 3201 3201 3202 3202 3203 3203
3172 3171 3171 3169 3168 3168 3168 3170 3169 3168 3167 3168 3168 3168 3167 3166 3165 3165 3165 3167 3168 3170 3174 3176 3178 3180 3180 3181 3180 3181 3183 3186 3189 3190 3191 3191 3189 3192 3196 3198 3200 3201 3201 3201 3201 3202 3202 3202 3203
3172 3172 3172 3171 3171 3170 3169 3168 3169 3167 3167 3168 3168 3167 3166 3164 3163 3164 3164 3165 3167 3169 3172 3174 3176 3179 3181 3180 3182 3182 3183 3186 3188 3190 3190 3190 3190 3192 3195 3198 3200 3201 3200 3200 3202 3203 3203 3202 3201
3173 3173 3173 3172 3172 3171 3170 3169 3169 3167 3167 3167 3167 3166 3164 3162 3161 3162 3162 3163 3166 3169 3171 3174 3175 3178 3179 3180 3180 3180 3182 3184 3186 3189 3189 3190 3189 3192 3194 3199 3200 3201 3201 3201 3202 3202 3203 3201 3201
3174 3175 3173 3172 3171 3171 3169 3168 3167 3166 3166 3166 3166 3165 3164 3162 3161 3160 3161 3162 3166 3167 3170 3171 3174 3176 3179 3180 3179 3181 3181 3183 3184 3186 3188 3189 3189 3192 3194 3199 3200 3201 3201 3202 3203 3203 3202 3203 3201
3175 3174 3173 3172 3170 3169 3167 3167 3166 3166 3166 3165 3165 3164 3163 3162 3161 3160 3160 3163 3165 3167 3170 3171 3173 3176 3177 3178 3179 3180 3180 3181 3182 3183 3185 3188 3190 3193 3197 3199 3200 3201 3202 3202 3202 3204 3204 3204 3201
3175 3174 3173 3171 3169 3166 3166 3166 3165 3165 3165 3164 3164 3163 3162 3161 3161 3160 3160 3163 3165 3168 3169 3171 3173 3175 3176 3177 3178 3178 3178 3178 3179 3183 3185 3187 3190 3194 3197 3199 3201 3202 3203 3204 3205 3206 3207 3205 3203
3175 3174 3172 3170 3168 3166 3163 3164 3164 3163 3163 3163 3162 3162 3162 3160 3159 3160 3161 3164 3167 3168 3169 3171 3173 3174 3175 3176 3176 3176 3174 3173 3177 3181 3184 3186 3190 3194 3197 3200 3202 3203 3205 3206 3206 3205 3206 3205 3203
3174 3173 3171 3170 3168 3166 3163 3161 3161 3160 3160 3161 3161 3161 3161 3160 3160 3161 3163 3165 3167 3168 3169 3170 3171 3172 3173 3175 3175 3173 3172 3174 3178 3180 3182 3186 3190 3194 3197 3200 3201 3204 3207 3206 3205 3203 3205 3205 3203
3173 3172 3170 3168 3167 3166 3163 3161 3158 3157 3157 3157 3159 3160 3160 3161 3161 3162 3164 3166 3166 3168 3168 3169 3169 3169 3171 3173 3173 3172 3172 3173 3176 3179 3182 3187 3191 3194 3197 3200 3202 3206 3207 3205 3205 3204 3205 3204 3203
3172 3170 3168 3167 3165 3165 3162 3159 3155 3155 3155 3155 3156 3158 3159 3161 3160 3162 3164 3166 3166 3166 3166 3166 3166 3167 3169 3171 3172 3172 3172 3173 3176 3179 3183 3189 3192 3194 3197 3200 3203 3206 3206 3206 3204 3204 3204 3203 3203
3171 3169 3167 3165 3162 3162 3162 3158 3156 3154 3152 3152 3154 3154 3157 3159 3161 3161 3163 3165 3165 3164 3164 3164 3164 3166 3167 3170 3171 3171 3173 3173 3176 3180 3185 3190 3194 3195 3198 3201 3203 3205 3205 3206 3205 3205 3205 3203 3203
3171 3169 3166 3163 3162 3162 3161 3155 3154 3153 3151 3150 3153 3155 3155 3157 3159 3160 3162 3163 3163 3163 3162 3162 3162 3164 3166 3169 3171 3171 3173 3176 3178 3182 3186 3191 3193 3196 3198 3201 3202 3203 3205 3205 3205 3205 3205 3204 3203
3170 3167 3164 3162 3161 3158 3157 3155 3154 3152 3149 3148 3151 3152 3154 3156 3158 3159 3161 3161 3161 3163 3162 3161 3161 3162 3164 3167 3170 3171 3173 3178 3180 3183 3187 3191 3193 3196 3198 3200 3200 3202 3205 3205 3205 3205 3205 3203 3203
3169 3167 3164 3161 3159 3156 3153 3151 3151 3149 3148 3145 3146 3147 3150 3154 3157 3157 3159 3160 3161 3162 3162 3160 3161 3164 3165 3167 3169 3172 3175 3179 3182 3184 3188 3190 3192 3195 3199 3201 3201 3203 3204 3204 3204 3206 3206 3205 3204
3168 3166 3161 3159 3156 3154 3151 3147 3147 3145 3145 3145 3144 3145 3148 3152 3153 3154 3158 3160 3159 3159 3159 3160 3161 3163 3165 3168 3170 3172 3176 3179 3183 3186 3188 3190 3192 3195 3198 3200 3201 3203 3204 3205 3204 3206 3206 3206 3204
3164 3163 3159 3158 3154 3152 3149 3145 3141 3140 3141 3141 3141 3144 3146 3148 3150 3152 3155 3158 3158 3158 3158 3160 3161 3163 3165 3168 3169 3171 3173 3177 3182 3186 3188 3190 3192 3195 3198 3200 3201 3202 3202 3204 3205 3206 3206 3207 3205
3161 3160 3158 3157 3155 3153 3151 3146 3139 3136 3137 3137 3138 3139 3141 3145 3148 3150 3153 3156 3158 3158 3158 3159 3160 3162 3164 3167 3169 3172 3175 3179 3182 3186 3188 3190 3192 3194 3196 3199 3200 3201 3202 3203 3203 3205 3206 3207 3206
3160 3159 3158 3157 3155 3154 3150 3149 3139 3136 3136 3137 3138 3138 3139 3143 3146 3147 3150 3155 3158 3159 3157 3158 3159 3160 3163 3166 3169 3171 3174 3177 3180 3183 3186 3189 3192 3193 3195 3197 3198 3200 3201 3201 3203 3202 3204 3206 3207
3159 3159 3157 3155 3155 3153 3151 3151 3139 3137 3135 3134 3136 3136 3138 3140 3144 3146 3149 3152 3155 3158 3157 3159 3159 3160 3162 3165 3168 3171 3173 3176 3179 3183 3185 3188 3190 3192 3195 3196 3197 3198 3199 3200 3201 3202 3202 3205 3205
3156 3157 3158 3158 3156 3154 3151 3150 3140 3138 3136 3136 3134 3134 3136 3138 3141 3142 3144 3149 3151 3155 3157 3159 3159 3160 3162 3163 3166 3170 3172 3175 3178 3181 3183 3186 3189 3191 3194 3195 3196 3198 3198 3199 3201 3201 3202 3203 3203
3153 3155 3157 3160 3158 3151 3149 3147 3142 3138 3137 3137 3136 3135 3136 3137 3139 3140 3142 3145 3150 3152 3156 3158 3159 3159 3160 3162 3165 3167 3170 3173 3177 3179 3182 3185 3188 3190 3192 3193 3194 3196 3197 3198 3200 3200 3201 3201 3202
3152 3152 3154 3153 3152 3151 3147 3145 3142 3139 3138 3137 3136 3135 3135 3137 3139 3140 3142 3143 3147 3151 3154 3157 3157 3158 3159 3161 3162 3164 3167 3170 3175 3178 3181 3183 3186 3188 3190 3191 3194 3195 3196 3196 3197 3198 3200 3200 3200
3151 3152 3152 3152 3154 3153 3146 3145 3142 3138 3138 3137 3136 3135 3136 3139 3140 3140 3141 3142 3145 3149 3151 3155 3156 3157 3158 3159 3161 3163 3166 3169 3173 3176 3179 3182 3184 3187 3189 3191 3192 3194 3195 3196 3196 3196 3197 3199 3199
3149 3148 3148 3150 3149 3149 3151 3144 3141 3139 3138 3138 3138 3137 3137 3139 3141 3141 3142 3142 3143 3145 3148 3151 3154 3155 3157 3157 3159 3161 3165 3168 3171 3174 3177 3180 3183 3186 3187 3189 3190 3192 3193 3194 3194 3196 3197 3197 3198
3146 3145 3145 3146 3147 3145 3144 3142 3139 3137 3135 3136 3137 3138 3137 3138 3139 3140 3140 3140 3140 3143 3145 3147 3151 3152 3155 3157 3159 3160 3163 3165 3169 3172 3176 3177 3180 3182 3184 3185 3188 3189 3190 3191 3191 3193 3194 3195 3197